Location: Ahausen
(50.4985°N, 8.2722°E)
Time: 15:39:45
(UTC+00:00)

Cosmos 494 Rocket - Pass Details

Date: 18 September 2020
Orbit: 741 x 771 km, 74.1° (Epoch: 21 October)

Event Time Altitude Azimuth Distance (km) Brightness Sun altitude
Rises 19:56:15 0° 333° (NNW) 3,245 8.2 -22.3°
Reaches altitude 10° 19:58:38 10° 331° (NNW) 2,318 7.3 -22.6°
Maximum altitude 20:03:51 65° 251° (WSW) 846 4.2 -23.3°
Enters shadow 20:05:35 41° 186° (S) 1,110 4.6 -23.5°
